Budapest Ferihegy, Hungary

9:56 AM CEST on July 23, 2017 (GMT +0200)
Ferihegy

Weather History for LHBP - March, 2013

Change the Weather History Date:

Saturday, March 30, 2013

  Actual Average Record
Temperature  
Mean Temperature 38 °F -  
Max Temperature 44 °F 59 °F 68 °F (2003)
Min Temperature 32 °F 39 °F 28 °F (1998)
Degree Days  
Heating Degree Days 27    
Moisture  
Dew Point 38 °F    
Average Humidity 96    
Maximum Humidity 100    
Minimum Humidity 81    
Precipitation  
Precipitation 0.00 in - - ()
Sea Level Pressure  
Sea Level Pressure 29.67 in    
Wind  
Wind Speed 4 mph ()    
Max Wind Speed 10 mph    
Max Gust Speed -    
Visibility 3.9 miles    
Events Fog , Rain    
Averages and records for this station are not official NWS values.
T = Trace of Precipitation, MM = Missing Value Source: Averaged Metar Reports

Daily Weather History Graph

Daily Weather History Graph

Search for Another Location

Airport or City:

Trip Planner

Search our weather history database for the weather conditions in past years. The results will help you decide how hot, cold, wet, or windy it might be!

Date:

Astronomy

Mar. 30, 2013 Rise Set
Actual Time 5:25 AM CET 6:09 PM CET
Civil Twilight 4:54 AM CET 6:40 PM CET
Nautical Twilight 4:18 AM CET 7:17 PM CET
Astronomical Twilight 3:39 AM CET 7:56 PM CET
Moon 10:13 PM CET (3/30) 6:51 AM CET (3/30)
Length of Visible Light 13h 45m
Length of Day
12h 43m
Waning Gibbous, 88% of the Moon is Illuminated
Mar 30
Waning Gibbous
Apr 3
Last Quarter
Apr 10
New
Apr 18
First Quarter
Apr 25
Full

Hourly Weather History & Observations

Time (CET) Temp. Windchill Dew Point Humidity Pressure Visibility Wind Dir Wind Speed Gust Speed Precip Events Conditions
12:00 AM 33.8 °F 29.6 °F 33.8 °F 100% 29.74 in 1.6 mi North 4.6 mph - N/A   Mostly Cloudy
12:30 AM 33.8 °F - 33.8 °F 100% 29.71 in 2.2 mi Variable 2.3 mph - N/A   Mostly Cloudy
1:00 AM 33.8 °F 29.6 °F 33.8 °F 100% 29.71 in 2.2 mi North 4.6 mph - N/A   Mostly Cloudy
1:30 AM 33.8 °F - 33.8 °F 100% 29.71 in 2.2 mi Variable 2.3 mph - N/A   Mostly Cloudy
2:00 AM 33.8 °F 30.8 °F 33.8 °F 100% 29.71 in 1.9 mi Variable 3.5 mph - N/A   Mostly Cloudy
2:30 AM 33.8 °F - 33.8 °F 100% 29.71 in 1.4 mi Variable 1.2 mph - N/A   Mostly Cloudy
3:00 AM 33.8 °F - 33.8 °F 100% 29.71 in 1.2 mi Variable 2.3 mph - N/A   Scattered Clouds
3:30 AM 33.8 °F 29.6 °F 33.8 °F 100% 29.68 in 1.2 mi North 4.6 mph - N/A   Mostly Cloudy
4:00 AM 33.8 °F 30.8 °F 33.8 °F 100% 29.71 in 1.4 mi Variable 3.5 mph - N/A   Mist
4:30 AM 33.8 °F - 33.8 °F 100% 29.71 in 1.2 mi Calm Calm - N/A   Mist
5:00 AM 32.0 °F - 32.0 °F 100% 29.71 in 1.2 mi Variable 2.3 mph - N/A   Mostly Cloudy
5:30 AM 32.0 °F - 32.0 °F 100% 29.71 in 1.5 mi Variable 1.2 mph - N/A   Scattered Clouds
6:00 AM 33.8 °F 30.8 °F 33.8 °F 100% 29.71 in 2.5 mi Variable 3.5 mph - N/A Fog Fog
6:30 AM 33.8 °F 30.8 °F 33.8 °F 100% 29.71 in 3.1 mi Variable 3.5 mph - N/A Fog Fog
7:00 AM 35.6 °F 31.7 °F 35.6 °F 100% 29.71 in 3.1 mi North 4.6 mph - N/A   Mostly Cloudy
7:30 AM 35.6 °F - 35.6 °F 100% 29.71 in 3.7 mi Calm Calm - N/A   Mostly Cloudy
8:00 AM 37.4 °F 32.8 °F 37.4 °F 100% 29.71 in 4.3 mi NE 5.8 mph - N/A   Mostly Cloudy
8:30 AM 37.4 °F 33.8 °F 37.4 °F 100% 29.71 in 5.0 mi ENE 4.6 mph - N/A   Overcast
9:00 AM 37.4 °F 32.8 °F 37.4 °F 100% 29.71 in 5.0 mi East 5.8 mph - N/A   Overcast
9:30 AM 37.4 °F 32.1 °F 37.4 °F 100% 29.71 in 5.0 mi ENE 6.9 mph - N/A   Overcast
10:00 AM 37.4 °F 32.8 °F 37.4 °F 100% 29.71 in 5.0 mi East 5.8 mph - N/A   Overcast
10:30 AM 39.2 °F 35.9 °F 39.2 °F 100% 29.71 in 5.0 mi North 4.6 mph - N/A   Overcast
11:00 AM 39.2 °F 35.0 °F 39.2 °F 100% 29.71 in 5.0 mi ENE 5.8 mph - N/A   Overcast
11:30 AM 39.2 °F 34.2 °F 39.2 °F 100% 29.71 in 6.2 mi East 6.9 mph - N/A   Overcast
12:00 PM 41.0 °F 37.1 °F 39.2 °F 93% 29.71 in 6.2 mi ENE 5.8 mph - N/A   Mostly Cloudy
12:30 PM 41.0 °F 36.4 °F 41.0 °F 100% 29.71 in 6.2 mi East 6.9 mph - N/A   Mostly Cloudy
1:00 PM 42.8 °F 38.0 °F 41.0 °F 93% 29.71 in 6.2 mi East 8.1 mph - N/A   Mostly Cloudy
1:30 PM 42.8 °F 38.6 °F 37.4 °F 81% 29.71 in 6.2 mi East 6.9 mph - N/A   Mostly Cloudy
2:00 PM 42.8 °F 38.0 °F 39.2 °F 87% 29.68 in 6.2 mi ENE 8.1 mph - N/A   Mostly Cloudy
2:30 PM 42.8 °F 38.6 °F 39.2 °F 87% 29.68 in 6.2 mi ENE 6.9 mph - N/A   Mostly Cloudy
3:00 PM 44.6 °F 40.7 °F 39.2 °F 81% 29.68 in 6.2 mi East 6.9 mph - N/A   Mostly Cloudy
3:30 PM 44.6 °F 39.7 °F 39.2 °F 81% 29.68 in 5.0 mi East 9.2 mph - N/A   Mostly Cloudy
4:00 PM 44.6 °F 39.7 °F 39.2 °F 81% 29.65 in 5.0 mi East 9.2 mph - N/A   Overcast
4:30 PM 44.6 °F 40.2 °F 39.2 °F 81% 29.65 in 5.0 mi East 8.1 mph - N/A   Mostly Cloudy
5:00 PM 44.6 °F 40.2 °F 39.2 °F 81% 29.62 in 6.2 mi ENE 8.1 mph - N/A   Overcast
5:30 PM 42.8 °F 38.6 °F 41.0 °F 93% 29.62 in 6.2 mi ENE 6.9 mph - N/A   Overcast
6:00 PM 42.8 °F 40.1 °F 41.0 °F 93% 29.62 in 6.2 mi East 4.6 mph - N/A   Overcast
6:30 PM 42.8 °F 38.6 °F 41.0 °F 93% 29.62 in 3.7 mi East 6.9 mph - N/A Rain Light Rain
7:00 PM 42.8 °F 39.3 °F 41.0 °F 93% 29.62 in 3.7 mi ENE 5.8 mph - N/A Rain Light Rain
7:30 PM 42.8 °F 38.6 °F 41.0 °F 93% 29.65 in 2.2 mi ESE 6.9 mph - N/A Rain Rain
8:00 PM 41.0 °F 36.4 °F 41.0 °F 100% 29.62 in 2.2 mi East 6.9 mph - N/A Rain Rain
8:30 PM 42.8 °F 38.6 °F 42.8 °F 100% 29.62 in 3.1 mi NE 6.9 mph - N/A Rain Light Rain
9:00 PM 42.8 °F 39.3 °F 42.8 °F 100% 29.59 in - NE 5.8 mph - N/A Rain Rain
9:30 PM 42.8 °F 39.3 °F 41.0 °F 93% 29.59 in 3.7 mi NE 5.8 mph - N/A Rain Light Rain
10:00 PM 42.8 °F 37.0 °F 42.8 °F 100% 29.56 in 3.7 mi NE 10.4 mph - N/A Rain Light Rain
10:30 PM 42.8 °F 38.0 °F 42.8 °F 100% 29.56 in 3.7 mi NE 8.1 mph - N/A Rain Light Rain
11:00 PM 42.8 °F 38.0 °F 42.8 °F 100% 29.56 in 3.7 mi NE 8.1 mph - N/A Rain Light Rain
11:30 PM 42.8 °F 38.0 °F 42.8 °F 100% 29.53 in 3.7 mi NE 8.1 mph - N/A Rain Light Rain